This is the latest recevied weather packets stored in our database for station/object N8HON. If no packets are shown the sender has not sent any weather packets the latest 10 day(s).
| Time | Temp. | Humidity | Pressure | Rain* | Wind** | Luminosity | Snow |
|---|---|---|---|---|---|---|---|
| 1777609695 | 5° C | 92% | 1013.4 hPa | 0 mm | - | 0 W/m² | - |
| 1777609392 | 5° C | 92% | 1013.9 hPa | 0 mm | - | 0 W/m² | - |
| 1777609090 | 4.44° C | 92% | 1013.6 hPa | 0 mm | - | 0 W/m² | - |
| 1777608786 | 5° C | 93% | 1013.4 hPa | 0 mm | - | 0 W/m² | - |
| 1777608482 | 5° C | 93% | 1013.6 hPa | 0 mm | - | 0 W/m² | - |
| 1777608181 | 4.44° C | 92% | 1013.3 hPa | 0 mm | - | 0 W/m² | - |
| 1777607877 | 4.44° C | 93% | 1013.4 hPa | 0 mm | - | 0 W/m² | - |
| 1777607573 | 4.44° C | 94% | 1013.4 hPa | 0 mm | - | 0 W/m² | - |
| 1777607269 | 4.44° C | 94% | 1013.4 hPa | 0 mm | - | 0 W/m² | - |
| 1777606965 | 4.44° C | 95% | 1013.4 hPa | 0 mm | - | 0 W/m² | - |
| 1777606662 | 4.44° C | 95% | 1013.2 hPa | 0 mm | - | 0 W/m² | - |
| 1777606358 | 4.44° C | 95% | 1013.4 hPa | 0 mm | - | 0 W/m² | - |
| 1777606058 | 4.44° C | 95% | 1013.1 hPa | 0 mm | - | 0 W/m² | - |
| 1777605754 | 5° C | 94% | 1013.6 hPa | 0 mm | - | 0 W/m² | - |
| 1777605452 | 5° C | 94% | 1013.7 hPa | 0 mm | - | 0 W/m² | - |
| 1777605151 | 5° C | 93% | 1013.3 hPa | 1.78 mm | - | 0 W/m² | - |
| 1777604845 | 5.56° C | 93% | 1013.4 hPa | 1.78 mm | - | 0 W/m² | - |
| 1777604542 | 5.56° C | 92% | 1013.4 hPa | 0 mm | - | 0 W/m² | - |
| 1777604237 | 6.11° C | 92% | 1013.6 hPa | 0 mm | - | 0 W/m² | - |
| 1777603933 | 6.11° C | 88% | 1013.6 hPa | 1.78 mm | - | 0 W/m² | - |
| 1777603631 | 6.11° C | 85% | 1013.3 hPa | 1.78 mm | - | 0 W/m² | - |
| 1777603327 | 6.11° C | 83% | 1013.3 hPa | 0 mm | - | 0 W/m² | - |
| 1777603022 | 5.56° C | 84% | 1013.4 hPa | 0 mm | - | 0 W/m² | - |
| 1777602717 | 5.56° C | 85% | 1013.2 hPa | 0 mm | - | 0 W/m² | - |
| 1777602412 | 5.56° C | 85% | 1013 hPa | 0 mm | - | 0 W/m² | - |
* Rain latest hour (hover to see other rain measurements)
** Current wind speed in m/s (hover to see current wind gust speed)